When you browse on this site, cookies collect data to enhance your experience and personalize the content and advertising you see.
Visit our Privacy Policy to learn more. By continuing to use the site, you agree to this use of cookies and data.
  • Em Portugal
  • Lista de países
  • Para 7 dias
  • Temperatura da água
  • Mapas de satélite
  • Mapa do tempo
  • Widgets de tempo
  • user-avatar
    Iniciar Sessão

    Previsão horária em Niemcowizna

    Hoje, 25 Maio, Sábado

    Tempo Temperatura Precipitação Vento Pressão Humidade
    00:00 +10°C° 0 mm 2 m/s 742 mmHg 83%
    01:00 +11°C° 0 mm 1 m/s 742 mmHg 82%
    02:00 +11°C° 0 mm 1 m/s 741 mmHg 83%
    03:00 +11°C° 0 mm 1 m/s 741 mmHg 83%
    04:00 +11°C° 0 mm 1 m/s 741 mmHg 83%
    05:00 +11°C° 0 mm 1 m/s 741 mmHg 83%
    06:00 +13°C° 0 mm 2 m/s 741 mmHg 80%
    07:00 +14°C° 0 mm 3 m/s 741 mmHg 76%
    08:00 +17°C° 0 mm 4 m/s 741 mmHg 72%
    09:00 +18°C° 0 mm 4 m/s 741 mmHg 68%
    10:00 +19°C° 0 mm 4 m/s 741 mmHg 63%
    11:00 +20°C° 0 mm 5 m/s 742 mmHg 59%
    12:00 +19°C° 0.3 mm 4 m/s 741 mmHg 64%
    13:00 +19°C° 0.3 mm 4 m/s 741 mmHg 70%
    14:00 +18°C° 0.3 mm 4 m/s 741 mmHg 76%
    15:00 +16°C° 0.1 mm 5 m/s 741 mmHg 74%
    16:00 +16°C° 0.1 mm 5 m/s 741 mmHg 73%
    17:00 +16°C° 0.1 mm 5 m/s 741 mmHg 71%
    18:00 +14°C° 0 mm 4 m/s 741 mmHg 75%
    19:00 +13°C° 0 mm 4 m/s 741 mmHg 79%
    20:00 +12°C° 0 mm 3 m/s 741 mmHg 82%
    21:00 +10°C° 0 mm 3 m/s 742 mmHg 86%
    22:00 +9°C° 0 mm 2 m/s 742 mmHg 91%
    23:00 +8°C° 0 mm 2 m/s 742 mmHg 95%

    Amanhã, 26 Maio, Domingo

    Tempo Temperatura Precipitação Vento Pressão Humidade
    00:00 +7°C° 0 mm 2 m/s 742 mmHg 95%
    01:00 +7°C° 0 mm 2 m/s 742 mmHg 96%
    02:00 +6°C° 0 mm 2 m/s 743 mmHg 96%
    03:00 +6°C° 0 mm 2 m/s 742 mmHg 97%
    04:00 +6°C° 0 mm 2 m/s 742 mmHg 97%
    05:00 +6°C° 0 mm 2 m/s 742 mmHg 97%
    06:00 +8°C° 0 mm 3 m/s 742 mmHg 91%
    07:00 +10°C° 0 mm 4 m/s 742 mmHg 84%
    08:00 +10°C° 0 mm 5 m/s 742 mmHg 78%
    09:00 +12°C° 0 mm 5 m/s 742 mmHg 78%
    10:00 +12°C° 0 mm 5 m/s 742 mmHg 78%
    11:00 +12°C° 0 mm 5 m/s 742 mmHg 78%
    12:00 +13°C° 0 mm 5 m/s 742 mmHg 76%
    13:00 +13°C° 0 mm 5 m/s 742 mmHg 75%
    14:00 +13°C° 0 mm 5 m/s 741 mmHg 74%
    15:00 +14°C° 0 mm 5 m/s 741 mmHg 73%
    16:00 +14°C° 0 mm 5 m/s 741 mmHg 72%
    17:00 +14°C° 0 mm 5 m/s 741 mmHg 70%
    18:00 +14°C° 0 mm 4 m/s 741 mmHg 74%
    19:00 +13°C° 0 mm 4 m/s 741 mmHg 78%
    20:00 +12°C° 0 mm 3 m/s 740 mmHg 82%
    21:00 +12°C° 0 mm 3 m/s 740 mmHg 85%
    22:00 +11°C° 0 mm 3 m/s 740 mmHg 88%
    23:00 +10°C° 0 mm 3 m/s 740 mmHg 91%

    Depois de amanhã, 27 Maio, Segunda-feira

    Tempo Temperatura Precipitação Vento Pressão Humidade
    00:00 +11°C° 0 mm 4 m/s 740 mmHg 88%
    01:00 +12°C° 0 mm 4 m/s 740 mmHg 85%
    02:00 +12°C° 0 mm 4 m/s 740 mmHg 82%
    03:00 +12°C° 0 mm 4 m/s 740 mmHg 85%
    04:00 +12°C° 0 mm 4 m/s 740 mmHg 87%
    05:00 +12°C° 0 mm 4 m/s 740 mmHg 89%
    06:00 +13°C° 0 mm 4 m/s 740 mmHg 86%
    07:00 +14°C° 0 mm 4 m/s 740 mmHg 83%
    08:00 +15°C° 0 mm 5 m/s 740 mmHg 80%
    09:00 +17°C° 0 mm 6 m/s 740 mmHg 76%
    10:00 +18°C° 0 mm 7 m/s 740 mmHg 73%
    11:00 +20°C° 0 mm 8 m/s 740 mmHg 70%
    12:00 +20°C° 0.4 mm 7 m/s 739 mmHg 71%
    13:00 +21°C° 0.4 mm 7 m/s 739 mmHg 72%
    14:00 +21°C° 0.4 mm 7 m/s 739 mmHg 74%
    15:00 +20°C° 1 mm 6 m/s 739 mmHg 77%
    16:00 +20°C° 1 mm 6 m/s 739 mmHg 81%
    17:00 +19°C° 1 mm 5 m/s 739 mmHg 84%
    18:00 +18°C° 0.7 mm 4 m/s 740 mmHg 88%
    19:00 +18°C° 0.7 mm 3 m/s 740 mmHg 91%
    20:00 +17°C° 0.7 mm 2 m/s 740 mmHg 94%
    21:00 +16°C° 0 mm 2 m/s 740 mmHg 95%
    22:00 +15°C° 0 mm 2 m/s 741 mmHg 96%
    23:00 +14°C° 0 mm 2 m/s 741 mmHg 97%

    28 Maio, Terça-feira

    Tempo Temperatura Precipitação Vento Pressão Humidade
    00:00 +14°C° 0 mm 2 m/s 741 mmHg 96%
    01:00 +13°C° 0 mm 2 m/s 741 mmHg 95%
    02:00 +13°C° 0 mm 1 m/s 741 mmHg 95%
    03:00 +13°C° 0 mm 1 m/s 741 mmHg 94%
    04:00 +13°C° 0 mm 2 m/s 741 mmHg 93%
    05:00 +13°C° 0 mm 2 m/s 741 mmHg 93%
    06:00 +13°C° 0.1 mm 2 m/s 741 mmHg 92%
    07:00 +14°C° 0.1 mm 2 m/s 741 mmHg 91%
    08:00 +13°C° 0.1 mm 3 m/s 741 mmHg 90%
    09:00 +14°C° 1.5 mm 3 m/s 741 mmHg 92%
    10:00 +14°C° 1.5 mm 3 m/s 741 mmHg 94%
    11:00 +14°C° 1.5 mm 3 m/s 740 mmHg 96%
    12:00 +14°C° 1.4 mm 3 m/s 740 mmHg 96%
    13:00 +16°C° 1.4 mm 3 m/s 739 mmHg 96%
    14:00 +16°C° 1.4 mm 2 m/s 739 mmHg 97%
    15:00 +17°C° 0.1 mm 3 m/s 739 mmHg 95%
    16:00 +17°C° 0.1 mm 3 m/s 738 mmHg 93%
    17:00 +18°C° 0.1 mm 3 m/s 738 mmHg 91%
    18:00 +17°C° 0 mm 3 m/s 738 mmHg 93%
    19:00 +17°C° 0 mm 3 m/s 738 mmHg 94%
    20:00 +16°C° 0 mm 3 m/s 738 mmHg 96%
    21:00 +16°C° 0.1 mm 3 m/s 738 mmHg 96%
    22:00 +14°C° 0.1 mm 3 m/s 737 mmHg 97%
    23:00 +14°C° 0.1 mm 3 m/s 737 mmHg 98%

    29 Maio, Quarta-feira

    Tempo Temperatura Precipitação Vento Pressão Humidade
    00:00 +14°C° 0.3 mm 3 m/s 737 mmHg 98%
    01:00 +15°C° 0.3 mm 2 m/s 737 mmHg 98%
    02:00 +15°C° 0.3 mm 2 m/s 737 mmHg 98%
    03:00 +15°C° 0.1 mm 2 m/s 737 mmHg 98%
    04:00 +15°C° 0.1 mm 2 m/s 737 mmHg 98%
    05:00 +15°C° 0.1 mm 2 m/s 737 mmHg 98%
    06:00 +15°C° 0 mm 2 m/s 737 mmHg 97%
    07:00 +16°C° 0 mm 3 m/s 737 mmHg 96%
    08:00 +16°C° 0 mm 3 m/s 738 mmHg 96%
    09:00 +16°C° 0.8 mm 3 m/s 738 mmHg 95%
    10:00 +15°C° 0.8 mm 4 m/s 738 mmHg 94%
    11:00 +15°C° 0.8 mm 4 m/s 738 mmHg 93%
    12:00 +14°C° 0.7 mm 5 m/s 739 mmHg 93%
    13:00 +14°C° 0.7 mm 5 m/s 739 mmHg 93%
    14:00 +13°C° 0.7 mm 6 m/s 740 mmHg 93%
    15:00 +11°C° 0.6 mm 6 m/s 740 mmHg 93%
    16:00 +10°C° 0.6 mm 7 m/s 740 mmHg 94%
    17:00 +9°C° 0.6 mm 7 m/s 741 mmHg 94%
    18:00 +9°C° 0.6 mm 7 m/s 741 mmHg 94%
    19:00 +9°C° 0.6 mm 7 m/s 742 mmHg 94%
    20:00 +8°C° 0.6 mm 7 m/s 743 mmHg 94%
    21:00 +8°C° 0.2 mm 6 m/s 743 mmHg 93%
    22:00 +7°C° 0.2 mm 5 m/s 744 mmHg 92%
    23:00 +6°C° 0.2 mm 5 m/s 745 mmHg 91%

    30 Maio, Quinta-feira

    Tempo Temperatura Precipitação Vento Pressão Humidade
    00:00 +6°C° 0 mm 4 m/s 745 mmHg 90%
    01:00 +6°C° 0 mm 4 m/s 746 mmHg 89%
    02:00 +5°C° 0 mm 4 m/s 746 mmHg 89%
    03:00 +5°C° 0 mm 3 m/s 746 mmHg 89%
    04:00 +4°C° 0 mm 3 m/s 747 mmHg 89%
    05:00 +4°C° 0 mm 3 m/s 747 mmHg 90%
    06:00 +5°C° 0 mm 3 m/s 748 mmHg 83%
    07:00 +8°C° 0 mm 3 m/s 748 mmHg 77%
    08:00 +10°C° 0 mm 3 m/s 749 mmHg 71%
    09:00 +12°C° 0 mm 3 m/s 749 mmHg 64%
    10:00 +13°C° 0 mm 3 m/s 749 mmHg 56%
    11:00 +16°C° 0 mm 3 m/s 750 mmHg 49%
    12:00 +16°C° 0 mm 3 m/s 750 mmHg 49%
    13:00 +16°C° 0 mm 2 m/s 750 mmHg 50%
    14:00 +17°C° 0 mm 2 m/s 750 mmHg 50%
    15:00 +17°C° 0 mm 2 m/s 750 mmHg 50%
    16:00 +17°C° 0 mm 2 m/s 750 mmHg 50%
    17:00 +17°C° 0 mm 2 m/s 750 mmHg 51%
    18:00 +16°C° 0 mm 1 m/s 750 mmHg 57%
    19:00 +14°C° 0 mm 1 m/s 749 mmHg 63%
    20:00 +13°C° 0 mm 1 m/s 749 mmHg 69%
    21:00 +13°C° 0 mm 1 m/s 749 mmHg 69%
    22:00 +12°C° 0 mm 1 m/s 749 mmHg 70%
    23:00 +12°C° 0 mm 1 m/s 749 mmHg 70%
    Mostrar mais